Location: Newark
(41.0400°S, 62.7845°W)
Time: 23:59:41
(UTC+00:00)

Vanguard 2 - Pass Details

Date: 11 December 2021
Orbit: 554 x 2935 km, 32.9° (Epoch: 27 January)

Event Time Altitude Azimuth Distance (km) Brightness Sun altitude
Rises 02:23:11 0° 305° (NW) 6,019 12.0 -21.8°
Reaches altitude 10° 02:26:55 10° 309° (NW) 5,246 11.6 -22.1°
Maximum altitude 02:42:47 55° 20° (NNE) 3,353 10.3 -23.2°
Drops below altitude 10° 02:59:14 10° 90° (E) 5,440 11.7 -24.2°
Sets 03:03:11 0° 94° (E) 6,247 12.1 -24.4°
